N800C KNEV-KPVU

Flight info

Callsign N800C
Flight time N/A
Altitude VFR
Route //W//
Aircraft C310/L-DOV/C

Departure

Time N/A
Airport KNEV

Arrival

Time 2026-04-19 23:07
Airport Provo Municipal Airport (KPVU)
Time Latitude Longitude Altitude Speed Heading
2026-04-19 22:41 40.32791 -113.06796 7816 ft 139 kts 115°
2026-04-19 22:41 40.32447 -113.05600 7807 ft 145 kts 114°
2026-04-19 22:41 40.32085 -113.04352 7805 ft 149 kts 115°
2026-04-19 22:41 40.31708 -113.03072 7810 ft 152 kts 115°
2026-04-19 22:42 40.31319 -113.01766 7810 ft 155 kts 115°
2026-04-19 22:42 40.30958 -113.00425 7806 ft 158 kts 108°
2026-04-19 22:42 40.30748 -112.98998 7803 ft 160 kts 104°
2026-04-19 22:42 40.30589 -112.97573 7905 ft 155 kts 102°
2026-04-19 22:43 40.30463 -112.96207 8023 ft 148 kts 101°
2026-04-19 22:43 40.30345 -112.94890 8136 ft 143 kts 101°
2026-04-19 22:43 40.30241 -112.93614 8274 ft 138 kts 101°
2026-04-19 22:43 40.30137 -112.92380 8399 ft 134 kts 101°
2026-04-19 22:44 40.30044 -112.91182 8526 ft 129 kts 101°
2026-04-19 22:44 40.29967 -112.90036 8646 ft 123 kts 101°
2026-04-19 22:44 40.29904 -112.88945 8748 ft 118 kts 101°
2026-04-19 22:44 40.29846 -112.87883 8795 ft 116 kts 101°
2026-04-19 22:45 40.29782 -112.86835 8817 ft 115 kts 101°
2026-04-19 22:45 40.29709 -112.85798 8826 ft 114 kts 101°
2026-04-19 22:45 40.29637 -112.84775 8826 ft 112 kts 101°
2026-04-19 22:45 40.29572 -112.83764 8846 ft 111 kts 101°
2026-04-19 22:46 40.29518 -112.82760 8850 ft 111 kts 101°
2026-04-19 22:46 40.29465 -112.81754 8848 ft 110 kts 101°
2026-04-19 22:46 40.29417 -112.80758 8853 ft 109 kts 100°
2026-04-19 22:46 40.29363 -112.79771 8850 ft 109 kts 99°
2026-04-19 22:47 40.29347 -112.78781 8854 ft 108 kts 97°
2026-04-19 22:47 40.29351 -112.77807 8822 ft 110 kts 96°
2026-04-19 22:47 40.29377 -112.76776 8776 ft 114 kts 92°
2026-04-19 22:47 40.29470 -112.75721 8718 ft 118 kts 94°
2026-04-19 22:48 40.29503 -112.74638 8676 ft 120 kts 94°
2026-04-19 22:48 40.29533 -112.73535 8646 ft 123 kts 94°
2026-04-19 22:48 40.29546 -112.72414 8636 ft 124 kts 95°
2026-04-19 22:48 40.29552 -112.71255 8562 ft 130 kts 96°
2026-04-19 22:49 40.29556 -112.70047 8486 ft 135 kts 97°
2026-04-19 22:49 40.29566 -112.68786 8429 ft 141 kts 95°
2026-04-19 22:49 40.29560 -112.67484 8377 ft 145 kts 94°
2026-04-19 22:49 40.29540 -112.66159 8353 ft 146 kts 95°
2026-04-19 22:50 40.29512 -112.64830 8357 ft 146 kts 98°
2026-04-19 22:50 40.29500 -112.63501 8339 ft 145 kts 97°
2026-04-19 22:50 40.29489 -112.62179 8335 ft 145 kts 96°
2026-04-19 22:50 40.29480 -112.60856 8342 ft 145 kts 95°
2026-04-19 22:51 40.29476 -112.59527 8340 ft 146 kts 94°
2026-04-19 22:51 40.29371 -112.56957 8229 ft 140 kts 101°
2026-04-19 22:51 40.29278 -112.55671 8193 ft 140 kts 101°
2026-04-19 22:52 40.29194 -112.54366 8170 ft 148 kts 101°
2026-04-19 22:52 40.29087 -112.53018 8114 ft 153 kts 99°
2026-04-19 22:52 40.28965 -112.51610 8045 ft 161 kts 103°
2026-04-19 22:52 40.28828 -112.50086 8007 ft 174 kts 100°
2026-04-19 22:53 40.28669 -112.48479 7946 ft 181 kts 101°
2026-04-19 22:53 40.28510 -112.46833 7927 ft 184 kts 102°
2026-04-19 22:53 40.28365 -112.45156 7925 ft 186 kts 100°
2026-04-19 22:53 40.28203 -112.43475 7917 ft 186 kts 101°
2026-04-19 22:54 40.28030 -112.41795 7917 ft 186 kts 100°
2026-04-19 22:54 40.27849 -112.40116 7911 ft 186 kts 100°
2026-04-19 22:54 40.27679 -112.38445 7896 ft 184 kts 100°
2026-04-19 22:54 40.27509 -112.36791 7917 ft 184 kts 101°
2026-04-19 22:55 40.27351 -112.35126 7923 ft 184 kts 99°
2026-04-19 22:55 40.27184 -112.33463 7925 ft 185 kts 101°
2026-04-19 22:55 40.27015 -112.31784 7926 ft 186 kts 100°
2026-04-19 22:55 40.26830 -112.30099 7923 ft 187 kts 100°
2026-04-19 22:56 40.26653 -112.28411 7915 ft 187 kts 101°
2026-04-19 22:56 40.26487 -112.26724 7911 ft 187 kts 101°
2026-04-19 22:56 40.26328 -112.25041 7914 ft 186 kts 101°
2026-04-19 22:56 40.26173 -112.23355 7914 ft 187 kts 100°
2026-04-19 22:57 40.26002 -112.21657 7930 ft 189 kts 101°
2026-04-19 22:57 40.25830 -112.19946 7913 ft 189 kts 101°
2026-04-19 22:57 40.25655 -112.18232 7928 ft 191 kts 101°
2026-04-19 22:57 40.25488 -112.16498 7926 ft 192 kts 101°
2026-04-19 22:58 40.25318 -112.14765 7911 ft 191 kts 100°
2026-04-19 22:58 40.25143 -112.13055 7911 ft 189 kts 100°
2026-04-19 22:58 40.24960 -112.11359 7920 ft 188 kts 101°
2026-04-19 22:58 40.24789 -112.09677 7916 ft 186 kts 100°
2026-04-19 22:59 40.24620 -112.08020 7947 ft 186 kts 101°
2026-04-19 22:59 40.24454 -112.06341 7944 ft 186 kts 101°
2026-04-19 22:59 40.24138 -112.04708 7950 ft 185 kts 108°
2026-04-19 22:59 40.23764 -112.03096 7958 ft 185 kts 110°
2026-04-19 23:00 40.23366 -112.01488 7958 ft 185 kts 110°
2026-04-19 23:00 40.22954 -111.99889 7964 ft 185 kts 110°
2026-04-19 23:00 40.22539 -111.98291 7973 ft 186 kts 110°
2026-04-19 23:00 40.22120 -111.96685 7973 ft 186 kts 111°
2026-04-19 23:01 40.21701 -111.95076 7986 ft 187 kts 110°
2026-04-19 23:01 40.21317 -111.93447 7986 ft 188 kts 105°
2026-04-19 23:01 40.21054 -111.91769 7973 ft 187 kts 101°
2026-04-19 23:01 40.21018 -111.90061 7968 ft 189 kts 90°
2026-04-19 23:02 40.21090 -111.88341 7988 ft 189 kts 88°
2026-04-19 23:02 40.21213 -111.86652 8115 ft 183 kts 85°
2026-04-19 23:02 40.21411 -111.84989 8120 ft 186 kts 82°
2026-04-19 23:02 40.21684 -111.83323 7976 ft 190 kts 79°
2026-04-19 23:03 40.22007 -111.81646 7831 ft 190 kts 77°
2026-04-19 23:03 40.22359 -111.80009 7580 ft 184 kts 76°
2026-04-19 23:03 40.22659 -111.78401 7362 ft 175 kts 84°
2026-04-19 23:03 40.22545 -111.76918 7060 ft 154 kts 105°
2026-04-19 23:04 40.22187 -111.75688 6699 ft 140 kts 124°
2026-04-19 23:04 40.21576 -111.74746 6354 ft 132 kts 136°
2026-04-19 23:04 40.20938 -111.73943 6009 ft 124 kts 142°
2026-04-19 23:04 40.20300 -111.73218 5739 ft 119 kts 142°
2026-04-19 23:05 40.19687 -111.72533 5519 ft 116 kts 144°
2026-04-19 23:05 40.19072 -111.71862 5286 ft 113 kts 136°
2026-04-19 23:05 40.18617 -111.71034 5179 ft 118 kts 91°
2026-04-19 23:05 40.19105 -111.70251 5037 ft 118 kts 30°
2026-04-19 23:06 40.19799 -111.70262 4873 ft 102 kts 322°
2026-04-19 23:06 40.20365 -111.70898 4705 ft 108 kts 324°
2026-04-19 23:06 40.20970 -111.71423 4546 ft 101 kts 324°
2026-04-19 23:06 40.21488 -111.71889 4496 ft 78 kts 326°
2026-04-19 23:07 40.21839 -111.72198 4495 ft 24 kts 321°
2026-04-19 23:07 40.21906 -111.72155 4495 ft 12 kts 80°
2026-04-19 23:07 40.21922 -111.72042 4495 ft 12 kts 79°
2026-04-19 23:07 40.21923 -111.71959 4495 ft 8 kts 117°
2026-04-19 23:08 40.21908 -111.71942 4498 ft 0 kts 145°